Regional Weather Roundup
Issued by NWS

Home | Current Version | Previous Version | Text Only | Print | Product List | Glossary Off
Versions: 1 2 3 4 5 6 7 8 9 10 11 12 13 14 15 16 17 18 19 20 21 22 23 24 25 26 27 28 29 30 31 32 33 34 35 36 37 38 39 40 41 42 43 44 45 46 47 48 49 50

000
ASUS43 KLOT 140806
RWRIL

ILLINOIS REGIONAL WEATHER ROUNDUP
NATIONAL WEATHER SERVICE CHICAGO/ROMEOVILLE IL
300 AM CDT MON JUL 14 2014

NOTE: "FAIR" INDICATES FEW OR NO CLOUDS BELOW 12,000 FEET WITH NO
SIGNIFICANT WEATHER AND/OR OBSTRUCTIONS TO VISIBILITY.

* THESE STATIONS ARE NOT UNDER NWS QUALITY CONTROL. THEY ALSO MAY NOT
  REPORT WEATHER SUCH AS PRECIPITATION OR FOG.

ILZ001-002-007-009-015-016-024-140900-
NORTHWEST ILLINOIS

CITY           SKY/WX    TMP DP  RH WIND       PRES   REMARKS
MOLINE         PTCLDY    65  62  90 CALM      29.89F
STERLING*      MOCLDY    63  61  94 CALM      29.90F VSB 1/2
SAVANNA*       MOCLDY    63  61  92 CALM      29.89S
$$

ILZ003-004-008-010-011-017-018-140900-
NORTH CENTRAL ILLINOIS

CITY           SKY/WX    TMP DP  RH WIND       PRES   REMARKS
ROCKFORD       MOCLDY    61  56  83 S3        29.91F
FREEPORT*      MOCLDY    58  55  89 CALM      29.92F
ROCHELLE*      CLOUDY    59  58  97 CALM      29.91S FOG
DE KALB*       CLEAR     62  54  74 CALM      29.91S
PERU*          CLEAR     67  64  91 CALM      29.91S
$$

ILZ005-006-012>014-019>023-140900-
NORTHEAST ILLINOIS

CITY           SKY/WX    TMP DP  RH WIND       PRES   REMARKS
CHICAGO-OHARE  PTCLDY    65  52  62 CALM      29.88F
CHICAGO-MIDWAY PTCLDY    69  56  62 CALM      29.89F
AURORA         CLEAR     61  58  90 CALM      29.90F
LANSING*       PTCLDY    67  57  70 CALM      29.90S
JOLIET*        CLEAR     63  61  94 CALM      29.90F FOG
WAUKEGAN       CLEAR     59  57  93 CALM      29.88F FOG
DUPAGE AIRPORT CLEAR     63  55  75 CALM      29.89F
KANKAKEE*      CLOUDY    67  65  92 SW3       29.91S
WHEELING       CLEAR     65  55  70 CALM      29.89F
MORRIS*        CLEAR     64  64 100 CALM      29.90S FOG
ROMEOVILLE*    CLEAR     64  62  91 CALM      29.90S
NORTHERLY ISL    N/A     68  54  60 CALM        N/A
$$

LMZ740>746-140900-
SOUTHERN LAKE MICHIGAN

STATION/POSITION SKY/WX   TEMP    WIND        PRES    VSBY  WAVE
                          AIR SEA DIR/SP/G                  HT/PER
                          (F)     (DEG/KT/KT) (MB)    (MI)  (FT/S)
SOUTHERN BUOY              65 64  300/  2/  2 1011.7S         0
WAUKEGAN HARBOR            67     270/  3/  5 1013.2F
HARRISON CRIB              69     300/  6/  7   N/A
BURNHAM HARBOR             69     170/  2/  8   N/A
CALUMET HARBOR             70     270/  1/  3 1013.2R
BURNS HARBOR               71     310/ 10/ 14 1013.2R
MICHIGAN CITY              71     270/ 12/ 14   N/A
$$

ILZ025>027-034>036-040-047-049-050-058-095>099-140900-
WEST-CENTRAL ILLINOIS

CITY           SKY/WX    TMP DP  RH WIND       PRES   REMARKS
QUINCY         MOCLDY    70  67  90 SW5       29.93S
GALESBURG*     CLEAR     64  63  96 CALM      29.91S
MACOMB*        CLEAR     66  66 100 SW3       29.93F
JACKSONVILLE*    N/A     70  70  98 CALM      29.92F FOG
PITTSFIELD*    PTCLDY    70  68  92 CALM      29.93F
$$

ILZ028>032-037-038-041>044-048-051>054-059>061-140900-
CENTRAL ILLINOIS

CITY           SKY/WX    TMP DP  RH WIND       PRES   REMARKS
PONTIAC        PTCLDY    66  64  94 CALM      29.91S
BLOOMINGTON    MOCLDY    66  63  90 S3        29.93S
DECATUR        CLOUDY    70  67  90 CALM      29.92F
PEORIA         CLEAR     69  64  84 CALM      29.91S
LACON*         CLEAR     65  64  95 CALM      29.90S
LINCOLN*       MOCLDY    67  65  94 CALM      29.89F FOG
SPRINGFIELD    MOCLDY    69  67  93 CALM      29.91F FOG
TAYLORVILLE    CLOUDY    68  68 100 CALM      29.92F FOG
$$

ILZ033-039-045-046-055>057-062-063-140900-
EAST-CENTRAL ILLINOIS

CITY           SKY/WX    TMP DP  RH WIND       PRES   REMARKS
CHAMPAIGN      CLOUDY    70  67  90 NW3       29.92S
RANTOUL*       CLOUDY    69  66  88 NW5       29.93S
MATTOON        CLOUDY    72  69  90 NW6       29.91F
PARIS*         CLOUDY    69  69 100 CALM      29.92S FOG
$$

ILZ079-100>102-140900-
SOUTHWEST ILLINOIS

CITY           SKY/WX    TMP DP  RH WIND       PRES   REMARKS
ALTON          CLOUDY    74  74 100 CALM      29.93S
BELLEVILLE     CLOUDY    73  73 100 VRB5      29.92S
CAHOKIA*       CLOUDY    74  72  93 CALM      29.93S
SPARTA*        DRIZZLE   70  68  94 CALM      29.94S
$$

ILZ064>066-069>071-074>076-080>082-084>086-088>090-092>094-140900-
SOUTH-CENTRAL ILLINOIS

CITY           SKY/WX    TMP DP  RH WIND       PRES   REMARKS
CARBONDALE     LGT RAIN  71  69  93 SW6       29.93F
CAIRO*         CLOUDY    82  73  72 W7        29.93R THUNDER HX  88
MARION         LGT RAIN  72  70  94 S5        29.93F
MT. VERNON     CLOUDY    72  66  83 SW6       29.91F THUNDER
CENTRALIA*     LGT RAIN  71  69  93 SW7       29.92S
SALEM*         LGT RAIN  74  73  95 CALM      29.91F
METROPOLIS*    CLOUDY    78  72  80 W3        29.92S HX  81
$$

ILZ067-068-072-073-078-083-087-091-140900-
SOUTHEAST ILLINOIS

CITY           SKY/WX    TMP DP  RH WIND       PRES   REMARKS
FLORA*         RAIN      72  71  95 SW6       29.91F
HARRISBURG*    TSTM      72  72 100 NW6       29.97R
ROBINSON*      LGT RAIN  72  71  96 CALM      29.92S
CARMI*         TSTM      73  72  97 NW3       29.92F
$$

ABBREVIATIONS USED IN REMARKS
   TC - TEMPERATURE IN CELSIUS
  WCI - WIND CHILL INDEX
   HX - HEAT INDEX
  VSB - VISIBILITY
$$



USA.gov is the U.S. government's official web portal to all federal, state and local government web resources and services.